DW7621 Ede NL current weather conditions

sailwx.info

Wind from 268 at 3 knots gusting 17

Air temperature 22.2° C
Dewpoint 16.9° C

Last reported at 2018-Sep-19 10:00 UTC.
Time now 2018-Sep-19 10:39 UTC

Location: N 52°03' E 005°39'.
View on Google Maps.

See reports from other nearby stations

  
Tides and Currents Weather Stations Pressure Air Temp Water Temp Dewpoint Dewpoint Depression Visibility Wind Speed Wind Dir Waves Ship Positions
date/time (UTC)wind fromknots sea level pressurealtimeterstation pressurevisibilityair tempwater tempwave heightnotes
2018-Sep-19 10:00 268 3 gusting 17 22.2
2018-Sep-19 09:45 209 2 gusting 9 22.2
2018-Sep-19 09:30 264 3 gusting 11 22.2
2018-Sep-19 09:15 218 0 gusting 7 21.1
2018-Sep-19 09:00 251 2 gusting 8 21.1
2018-Sep-19 08:45 208 0 gusting 7 20.6
2018-Sep-19 08:30 213 2 gusting 8 20.0
2018-Sep-19 08:01 211 2 gusting 8 19.4
2018-Sep-19 07:47 200 1 gusting 6 18.9
2018-Sep-19 07:31 217 2 gusting 6 18.3
2018-Sep-19 07:16 231 1 gusting 8 17.8
2018-Sep-19 07:00 206 2 gusting 6 17.8
2018-Sep-19 06:45 185 1 gusting 6 17.2
2018-Sep-19 06:31 184 17.2
2018-Sep-19 06:16 175 0 gusting 4 16.7
2018-Sep-19 06:00 179 0 gusting 4 16.1
2018-Sep-19 05:46 188 0 gusting 5 16.1
2018-Sep-19 05:30 195 0 gusting 5 16.1
2018-Sep-19 05:15 197 15.6
2018-Sep-19 05:00 197 15.6
2018-Sep-19 04:45 197 15.6
2018-Sep-19 04:30 200 15.6
2018-Sep-19 04:16 200 15.6
2018-Sep-19 04:00 200 15.6
2018-Sep-19 03:46 200 15.6
2018-Sep-19 03:31 200 15.6
2018-Sep-19 03:15 200 15.6
2018-Sep-19 03:00 200 15.6
2018-Sep-19 02:45 200 15.6
2018-Sep-19 02:30 200 15.6
2018-Sep-19 02:15 200 15.6
2018-Sep-19 02:00 200 15.6
2018-Sep-19 01:45 200 16.1
2018-Sep-19 01:30 200 16.1
2018-Sep-19 01:15 201 0 gusting 2 16.1
2018-Sep-19 01:00 201 16.1
2018-Sep-19 00:45 204 0 gusting 3 16.1
2018-Sep-19 00:30 207 0 gusting 4 16.1
2018-Sep-19 00:15 209 16.1
2018-Sep-18 23:45 210 16.7
2018-Sep-18 23:30 242 16.7
2018-Sep-18 23:15 245 16.7
2018-Sep-18 23:00 247 16.7
2018-Sep-18 22:45 247 16.7
2018-Sep-18 22:31 256 17.2
2018-Sep-18 22:16 289 17.2
2018-Sep-18 22:01 290 17.2
2018-Sep-18 21:46 310 17.8
2018-Sep-18 21:32 312 0 gusting 4 17.8
2018-Sep-18 21:16 322 0 gusting 5 18.3
2018-Sep-18 21:01 295 1 gusting 7 18.3
2018-Sep-18 20:46 279 18.3
2018-Sep-18 20:31 275 6 gusting 13 18.9
2018-Sep-18 20:16 294 1 gusting 6 18.9
2018-Sep-18 20:00 281 1 gusting 8 19.4
2018-Sep-18 19:46 290 2 gusting 11 19.4
2018-Sep-18 19:31 273 0 gusting 5 20.0
2018-Sep-18 19:16 283 1 gusting 5 20.0
2018-Sep-18 19:01 280 20.6
2018-Sep-18 18:46 289 0 gusting 6 20.6
2018-Sep-18 18:30 296 2 gusting 8 21.1
2018-Sep-18 18:16 296 1 gusting 6 21.7
2018-Sep-18 18:02 285 3 gusting 10 21.7
2018-Sep-18 17:45 290 3 gusting 8 22.2
2018-Sep-18 17:33 286 4 gusting 10 22.8
2018-Sep-18 17:15 223 1 gusting 11 23.3
2018-Sep-18 17:00 273 1 gusting 17 23.9
2018-Sep-18 16:46 280 6 gusting 14 23.9
2018-Sep-18 16:30 287 4 gusting 14 24.4
2018-Sep-18 16:16 270 6 gusting 10 25.0
2018-Sep-18 16:01 237 6 gusting 13 25.6
2018-Sep-18 15:46 270 5 gusting 11 25.6
2018-Sep-18 15:31 344 5 gusting 12 26.1
2018-Sep-18 15:16 287 3 gusting 13 26.1
2018-Sep-18 15:01 270 5 gusting 13 26.1
2018-Sep-18 14:46 254 2 gusting 13 26.7
2018-Sep-18 14:31 264 4 gusting 12 26.7
2018-Sep-18 14:16 279 2 gusting 14 27.2
2018-Sep-18 14:02 306 6 gusting 12 27.2
2018-Sep-18 13:46 258 6 gusting 14 27.2
2018-Sep-18 13:31 227 3 gusting 7 27.2
2018-Sep-18 13:16 187 4 gusting 12 27.2
2018-Sep-18 13:01 293 5 gusting 11 26.7
2018-Sep-18 12:46 333 4 gusting 13 26.7
2018-Sep-18 12:31 307 2 gusting 8 27.2
2018-Sep-18 12:15 279 2 gusting 10 26.7
2018-Sep-18 12:00 273 2 gusting 9 26.1
2018-Sep-18 11:46 176 3 gusting 9 26.1
2018-Sep-18 11:31 178 1 gusting 8 26.1
2018-Sep-18 11:15 143 2 gusting 11 25.6
2018-Sep-18 11:01 142 3 gusting 11 26.1
2018-Sep-18 10:45 205 3 gusting 14 25.0
2018-Sep-18 10:30 185 2 gusting 6 25.6
2018-Sep-18 10:15 203 1 gusting 5 25.0
2018-Sep-18 10:00 157 2 gusting 10 24.4
2018-Sep-18 09:45 206 2 gusting 8 23.9
2018-Sep-18 09:30 270 1 gusting 11 23.9
2018-Sep-18 09:15 178 1 gusting 7 23.3
2018-Sep-18 09:00 237 1 gusting 9 22.8
2018-Sep-18 08:46 169 1 gusting 7 22.8
2018-Sep-18 08:31 259 2 gusting 6 22.2
2018-Sep-18 08:16 211 2 gusting 8 21.7
2018-Sep-18 08:00 223 0 gusting 6 21.1
2018-Sep-18 07:45 228 2 gusting 6 20.6
2018-Sep-18 07:30 185 2 gusting 6 20.0
2018-Sep-18 07:16 195 1 gusting 8 19.4
2018-Sep-18 07:00 194 1 gusting 6 19.4
2018-Sep-18 06:45 227 2 gusting 7 18.9
2018-Sep-18 06:30 175 0 gusting 5 18.9
2018-Sep-18 06:15 192 0 gusting 6 18.3
2018-Sep-18 06:00 186 0 gusting 5 18.3
2018-Sep-18 05:30 174 1 gusting 5 17.8
2018-Sep-18 05:15 189 0 gusting 5 17.8
2018-Sep-18 05:00 188 1 gusting 4 17.2
2018-Sep-18 04:45 184 0 gusting 5 17.2
2018-Sep-18 04:30 164 0 gusting 4 17.2
2018-Sep-18 04:16 185 1 gusting 6 17.2
2018-Sep-18 04:01 185 0 gusting 3 17.2
2018-Sep-18 03:46 166 17.2
2018-Sep-18 03:32 197 17.2
2018-Sep-18 03:16 183 17.2
2018-Sep-18 03:01 186 0 gusting 4 17.2
2018-Sep-18 02:46 189 0 gusting 3 17.2
2018-Sep-18 02:31 190 17.2
2018-Sep-18 02:16 190 17.2
2018-Sep-18 02:00 183 0 gusting 3 17.2
2018-Sep-18 01:46 183 17.2
2018-Sep-18 01:32 180 0 gusting 3 17.2
2018-Sep-18 01:16 228 17.2
2018-Sep-18 01:01 190 0 gusting 3 17.2
2018-Sep-18 00:31 191 16.1
2018-Sep-18 00:15 190 15.0
2018-Sep-18 00:00 190 14.4
2018-Sep-17 23:45 190 14.4
2018-Sep-17 23:31 190 14.4
2018-Sep-17 23:15 190 14.4
2018-Sep-17 23:00 190 14.4
2018-Sep-17 22:46 190 15.0
2018-Sep-17 22:30 190 15.0
2018-Sep-17 22:15 190 15.6
2018-Sep-17 22:00 190 16.7
2018-Sep-17 21:45 191 16.7
2018-Sep-17 21:30 190 16.1
2018-Sep-17 21:15 190 16.7
2018-Sep-17 21:00 190 16.7
2018-Sep-17 20:45 190 16.7
2018-Sep-17 20:30 190 16.7
2018-Sep-17 20:15 190 17.2
2018-Sep-17 20:00 191 17.2
2018-Sep-17 19:45 191 17.2
2018-Sep-17 19:30 190 17.8
2018-Sep-17 19:15 190 18.3
2018-Sep-17 18:46 191 18.9
2018-Sep-17 18:31 190 20.0
2018-Sep-17 18:17 190 21.1
2018-Sep-17 18:01 190 22.2
2018-Sep-17 17:46 191 23.9
2018-Sep-17 17:32 191 25.0
2018-Sep-17 17:16 191 25.0
2018-Sep-17 17:01 190 25.6
2018-Sep-17 16:46 191 25.6
2018-Sep-17 16:30 201 25.6
2018-Sep-17 16:16 199 25.6
2018-Sep-17 16:01 215 25.6
2018-Sep-17 15:46 206 26.1
2018-Sep-17 15:31 198 25.6
2018-Sep-17 15:15 182 1 gusting 5 25.6
2018-Sep-17 15:00 185 25.6
2018-Sep-17 14:45 216 2 gusting 4 25.6
2018-Sep-17 14:31 190 0 gusting 6 25.6
2018-Sep-17 14:16 224 1 gusting 6 25.0
2018-Sep-17 14:00 192 0 gusting 6 25.6
2018-Sep-17 13:45 213 26.1
2018-Sep-17 13:31 235 1 gusting 6 25.6
2018-Sep-17 13:16 214 1 gusting 8 25.0
2018-Sep-17 13:00 214 0 gusting 6 25.0
2018-Sep-17 12:45 190 25.0
2018-Sep-17 12:30 176 3 gusting 6 24.4
2018-Sep-17 12:15 287 3 gusting 7 23.9
2018-Sep-17 12:00 165 1 gusting 6 23.9
2018-Sep-17 11:45 240 23.9
2018-Sep-17 11:15 309 1 gusting 6 22.8
2018-Sep-17 10:47 212 22.2
2018-Sep-17 10:31 244 21.7